Hourly Weather Roundup
Issued by NWS Central Illinois

Home | Current Version | Previous Version | Text Only | Print | Product List | Glossary On
Versions: 1 2 3 4 5 6 7 8 9 10 11 12 13 14 15 16 17 18 19 20 21 22 23 24 25 26 27 28 29 30 31 32 33 34 35 36 37 38 39 40 41 42 43 44 45 46 47 48 49 50
000
NZUS43 KILX 060210
HWRILX

AREA WEATHER ROUNDUP
NATIONAL WEATHER SERVICE, LINCOLN IL
900 PM CDT SUN JUL 05 2015


CITY           SKY/WX    TMP DP  RH WIND       PRES   REMARKS
BLOOMINGTON    CLEAR     73  68  84 S7        30.04S
CHAMPAIGN      CLEAR     72  67  84 CALM      30.04S
DANVILLE       CLEAR     68  66  95 CALM      30.03R FOG
DECATUR        CLEAR     72  66  81 S3        30.03R
EFFINGHAM      CLEAR     73  68  84 CALM      30.05S
FLORA          CLEAR     73  71  93 CALM      30.04S
GALESBURG      MOCLDY    73  66  79 SE3       29.99S
JACKSONVILLE   MOCLDY    77  71  82 SE6       29.99F
LACON          CLEAR     73  65  74 SE3       30.00S
LAWRENCEVILLE  PTCLDY    76  69  79 MISG      30.05R
LITCHFIELD     PTCLDY    73  66  80 SE6       30.03R
$$


CITY           SKY/WX    TMP DP  RH WIND       PRES   REMARKS
LINCOLN        CLEAR     73  67  81 CALM      30.01S
MACOMB         PTCLDY    73  69  89 SE3       30.00F FOG
MATTOON        CLEAR     73  70  90 CALM      30.04R FOG
MT CARMEL AP   MOCLDY    79  72  78 CALM      30.04S HX  82
OLNEY-NOBLE AP CLEAR     73  72  94 CALM      30.04S
PARIS          CLEAR     72  69  91 CALM      30.06R FOG
PEORIA         CLEAR     77  65  66 SE5       30.00F HAZE
PONTIAC        CLEAR     71  68  89 SE5       30.03S
RANTOUL        CLEAR     73  69  88 CALM      30.04S
ROBINSON       PTCLDY    74  71  90 CALM      30.06R
SPRINGFIELD    PTCLDY    75  68  78 SE6       30.01R
TAYLORVILLE    CLEAR     72  68  88 SE5       30.03R
$$

...REGIONAL REPORTS...


CITY           SKY/WX    TMP DP  RH WIND       PRES   REMARKS
CHICAGO O`HARE CLEAR     74  60  61 S7        30.01S
KANKAKEE       LGT RAIN  73  64  75 SE3       30.03F
MOLINE         PTCLDY    74  66  76 SE7       29.97S
MOUNT STERLING NOT AVBL
MOUNT VERNON   CLEAR     72  64  78 CALM      30.05R
PITTSFIELD     PTCLDY    75  70  84 SE5       30.01R
QUINCY         PTCLDY    75  69  81 SE7       29.97F HAZE
ROCKFORD       PTCLDY    73  63  70 S8        30.01S
$$


CITY           SKY/WX    TMP DP  RH WIND       PRES   REMARKS
BURLINGTON     PTCLDY    77  70  79 SE7       29.96F
CEDAR RAPIDS   CLEAR     76  69  79 SE6       29.93F
DES MOINES     PTCLDY    81  69  67 SE13      29.87F HX  84
KIRKSVILLE     PTCLDY    76  68  76 SE8       29.95S
OTTUMWA        PTCLDY    77  70  79 SE9       29.90F
ST LOUIS       MOCLDY    83  66  56 S10       30.01R HAZE    HX  85
$$


CITY           SKY/WX    TMP DP  RH WIND       PRES   REMARKS
TERRE HAUTE    PTCLDY    74  68  81 SE3       30.05R
EVANSVILLE     PTCLDY    77  70  79 CALM      30.05R HAZE
INDIANAPOLIS   MOCLDY    74  60  61 SE5       30.06R
LAFAYETTE      CLEAR     71  63  75 CALM      30.04R
MADISON        MOCLDY    77  64  64 S8        29.98S
MILWAUKEE      PTCLDY    72  58  61 S7        30.00F
$$




USA.gov is the U.S. government's official web portal to all federal, state and local government web resources and services.